Flag for United Arab Emirates Weather past 2 weeks in Sharjah, Sharjah, United Arab Emirates

Now
102 °F

Sunny.


Feels Like: 108 °F
Forecast: 89 / 102 °F
Wind: 16 mph from Northwest

Location: Sharjah International Airport

Current Time: Sep 1, 2015 at 4:50:55 PM

Latest Report: Sep 1, 2015 at 4:00 PM


Visibility: 10 mi

Pressure: 29.56 "Hg

Humidity: 33%

Dew point: 68 °F

Historic Weather in Sharjah — Graph

°F

Sharjah temperature yesterday

Maximum temperature yesterday: 109 °F (at 12:00 PM)
Minimum temperature yesterday: 88 °F (at 5:00 AM)
Average temperature yesterday: 99 °F

Past Weeks' High & Low Weather Summary

 TemperatureHumidityPressure
High111 °F (Aug 23, 1:00 PM)89% (Sep 1, 3:00 AM)29.68 "Hg (Sep 1, 3:00 AM)
Low82 °F (Aug 18, 5:00 AM)12% (Aug 26, 3:00 PM)29.50 "Hg (Aug 23, 5:00 PM)
Average97 °F40%29.58 "Hg
* Reported Aug 17 3:00 PM — Sep 1 3:00 PM, Sharjah, Weather by CustomWeather, © 2015

Note: Actual official high and low records may vary slightly from our data, if they occured in-between our weather recording intervals... More about our weather records

Advertising

Sharjah weather history for previous 24 hours

 ConditionsComfort  
Time TempWeatherWind HumidityBarometerVisibility
3:00 PM
Tue, Sep 1
102 °FSunny.15 mph45%29.56 "Hg10 mi
2:00 PM104 °FSunny.17 mph38%29.56 "Hg10 mi
1:00 PM109 °FSunny.7 mph30%29.59 "Hg10 mi
12:00 PM109 °FSunny.7 mph18%29.62 "Hg10 mi
11:00 AM108 °FSunny.6 mph20%29.62 "Hg10 mi
10:00 AM102 °FClear.9 mph31%29.65 "Hg5 mi
9:00 AM99 °FClear.1 mph44%29.65 "Hg4 mi
7:00 AM88 °FClear.3 mph79%29.59 "Hg4 mi
6:00 AM86 °FClear.2 mph89%29.59 "Hg4 mi
5:00 AM86 °FClear.1 mph89%29.59 "Hg4 mi
4:00 AM86 °FClear.2 mph89%29.59 "Hg4 mi
3:00 AM86 °FClear.3 mph89%29.59 "Hg5 mi
1:00 AM88 °FClear.5 mph75%29.59 "Hg10 mi
12:00 AM88 °FClear.6 mph70%29.59 "Hg10 mi
11:00 PM
Mon, Aug 31
90 °FClear.2 mph67%29.62 "Hg10 mi
10:00 PM93 °FClear.3 mph59%29.62 "Hg10 mi
9:00 PM95 °FClear.5 mph50%29.62 "Hg10 mi
8:00 PM97 °FClear.3 mph50%29.59 "Hg10 mi
7:00 PM99 °FClear.5 mph47%29.59 "Hg10 mi
6:00 PM102 °FSunny.8 mph35%29.59 "Hg10 mi
5:00 PM104 °FClear.12 mph31%29.59 "Hg5 mi
4:00 PM106 °FSunny.13 mph25%29.59 "Hg10 mi
Weather by CustomWeather, © 2015

See weather overviewHow to use our weather pages